This is the latest recevied weather packets stored in our database for station/object K9ABJ. If no packets are shown the sender has not sent any weather packets the latest 10 day(s).
| Time | Temp. | Humidity | Pressure | Rain* | Wind** | Luminosity | Snow |
|---|---|---|---|---|---|---|---|
| 1787876937 | 23.89° C | 71% | 1015.3 hPa | 0 mm | - | 0 W/m² | - |
| 1787876632 | 23.89° C | 71% | 1015.5 hPa | 0 mm | - | 1 W/m² | - |
| 1787876332 | 23.89° C | 70% | 1015.6 hPa | 0 mm | - | 2 W/m² | - |
| 1787876030 | 24.44° C | 70% | 1015.5 hPa | 0 mm | - | 2 W/m² | - |
| 1787875726 | 24.44° C | 69% | 1015.5 hPa | 0 mm | - | 7 W/m² | - |
| 1787875425 | 25° C | 69% | 1015.5 hPa | 0 mm | - | 9 W/m² | - |
| 1787875124 | 25° C | 68% | 1015.5 hPa | 0 mm | - | 12 W/m² | - |
| 1787874819 | 25.56° C | 67% | 1015.1 hPa | 0 mm | - | 16 W/m² | - |
| 1787874517 | 25.56° C | 66% | 1015.4 hPa | 0 mm | - | 20 W/m² | - |
| 1787874212 | 25.56° C | 66% | 1015.2 hPa | 0 mm | - | 22 W/m² | - |
| 1787873907 | 26.11° C | 65% | 1015.3 hPa | 0 mm | - | 26 W/m² | - |
| 1787873607 | 26.67° C | 63% | 1015.2 hPa | 0 mm | - | 29 W/m² | - |
| 1787873302 | 26.67° C | 63% | 1015.1 hPa | 0 mm | - | 38 W/m² | - |
| 1787873001 | 27.78° C | 61% | 1015.2 hPa | 0 mm | - | 44 W/m² | - |
| 1787872696 | 27.78° C | 60% | 1015.2 hPa | 0 mm | - | 48 W/m² | - |
| 1787872392 | 27.78° C | 60% | 1015.3 hPa | 0 mm | - | 54 W/m² | - |
| 1787872087 | 28.33° C | 59% | 1015.2 hPa | 0 mm | - | 62 W/m² | - |
| 1787871781 | 28.89° C | 58% | 1015.2 hPa | 0 mm | - | 104 W/m² | - |
| 1787871476 | 27.78° C | 60% | 1015.3 hPa | 0 mm | - | 110 W/m² | - |
| 1787871172 | 27.78° C | 60% | 1015 hPa | 0 mm | - | 127 W/m² | - |
| 1787870871 | 28.89° C | 58% | 1015.2 hPa | 0 mm | - | 126 W/m² | - |
| 1787870566 | 28.89° C | 58% | 1015.2 hPa | 0 mm | - | 138 W/m² | - |
| 1787870262 | 30° C | 56% | 1015.2 hPa | 0 mm | - | 135 W/m² | - |
| 1787869956 | 29.44° C | 58% | 1015.2 hPa | 0 mm | - | 171 W/m² | - |
| 1787869656 | 28.89° C | 60% | 1015.2 hPa | 0 mm | - | 131 W/m² | - |
* Rain latest hour (hover to see other rain measurements)
** Current wind speed in m/s (hover to see current wind gust speed)